EST,Max TemperatureF,Mean TemperatureF,Min TemperatureF,Max Dew PointF,MeanDew PointF,Min DewpointF,Max Humidity, Mean Humidity, Min Humidity, Max Sea Level PressureIn, Mean Sea Level PressureIn, Min Sea Level PressureIn, Max VisibilityMiles, Mean VisibilityMiles, Min VisibilityMiles, Max Wind SpeedMPH, Mean Wind SpeedMPH, Max Gust SpeedMPH,PrecipitationIn, CloudCover, Events, WindDirDegrees
2013-1-1,26,22,18,12,10,7,73,63,48,30.11,30.03,29.99,10,10,7,15,8,21,0.00,7,Snow,289
2013-1-2,28,22,15,18,14,10,80,72,63,30.12,30.06,29.98,10,10,10,15,9,20,0.00,7,Snow,247
2013-1-3,29,25,21,23,20,17,87,79,69,30.08,29.99,29.93,10,9,2,18,10,24,0.00,8,Snow,243
2013-1-4,32,28,22,21,19,17,87,72,62,30.07,29.90,29.83,10,10,10,25,18,33,0.00,2,,247
2013-1-5,33,22,11,30,22,9,95,85,63,30.21,30.08,29.88,10,7,1,15,7,24,0.00,4,Snow,208
2013-1-6,33,30,27,32,29,21,99,91,76,30.22,29.94,29.79,10,6,1,15,8,18,0.00,8,Rain-Snow,277
2013-1-7,36,30,25,25,22,19,89,72,56,30.26,30.12,29.98,10,10,10,26,10,36,0.00,3,,209
2013-1-8,38,32,26,30,27,23,91,81,69,30.16,30.10,30.00,10,8,5,14,10,22,0.00,0,,206
2013-1-9,43,36,29,32,27,24,87,70,50,30.38,30.02,29.84,10,9,5,30,14,40,0.00,5,Rain,242
2013-1-10,40,30,20,31,25,19,93,79,56,30.54,30.43,30.20,10,10,10,13,5,17,0.00,0,,169
2013-1-11,47,40,34,47,38,30,98,94,78,30.19,29.84,29.68,10,5,0,17,9,25,0.40,8,Fog-Rain,182
2013-1-12,58,48,39,46,36,24,97,71,31,29.92,29.78,29.72,10,8,3,26,10,38,0.00,1,Rain,216
2013-1-13,39,34,29,34,33,27,100,94,73,29.92,29.86,29.78,10,6,1,15,5,22,0.33,8,Rain-Snow,300
2013-1-14,29,20,11,26,16,9,93,80,65,30.36,30.24,29.92,10,10,7,20,12,26,0.00,4,Snow,260
2013-1-15,27,18,9,17,13,7,90,80,59,30.37,30.29,30.11,10,10,10,12,5,,0.00,0,,218
2013-1-16,31,22,13,26,19,11,92,82,68,30.09,29.83,29.63,10,10,5,21,9,31,0.00,4,Snow,228
2013-1-17,27,16,3,18,9,0,88,71,63,30.27,30.15,29.89,10,9,1,17,9,23,0.00,7,Snow,316
2013-1-18,32,16,1,25,11,-3,88,79,64,30.36,30.14,29.76,10,9,2,20,10,28,0.00,4,Snow,210
2013-1-19,37,34,30,35,30,23,94,82,72,29.81,29.65,29.38,10,9,0,18,13,24,0.05,7,Rain-Snow,213
2013-1-20,32,20,8,31,10,3,94,73,53,30.11,29.89,29.37,10,9,2,31,15,43,0.00,7,Snow,279
2013-1-21,14,8,1,7,1,-6,87,70,44,30.07,29.95,29.86,10,10,3,20,9,30,0.00,5,Snow,251
2013-1-22,8,3,-2,-3,-8,-10,79,64,45,30.21,30.12,29.99,10,10,2,18,10,23,0.00,4,Snow,260
2013-1-23,14,6,-2,8,0,-8,89,75,55,30.20,30.11,30.03,10,10,4,17,8,24,0.00,5,Snow,249
2013-1-24,13,6,0,9,-1,-8,87,70,41,30.57,30.45,30.12,10,9,1,16,9,21,0.00,2,Snow,332
2013-1-25,19,12,4,15,10,0,92,81,68,30.47,30.15,29.99,10,6,2,14,4,21,0.00,7,Snow,207
2013-1-26,27,14,2,17,11,-1,93,82,61,30.40,30.22,30.01,10,9,2,13,4,,0.00,4,Snow,300
2013-1-27,27,14,0,25,15,-3,95,81,63,30.43,30.34,30.13,10,8,1,18,5,22,0.02,6,Snow,190
2013-1-28,34,30,27,33,31,26,100,95,91,30.12,29.91,29.78,10,6,0,12,6,18,0.18,8,Rain-Snow,225
2013-1-29,49,40,31,49,37,30,99,96,92,30.00,29.70,29.40,10,4,0,15,5,18,0.52,8,Fog-Rain,176
2013-1-30,49,40,30,48,36,29,99,96,88,29.39,29.20,28.99,10,6,0,21,7,30,0.52,8,Rain-Snow,303
2013-1-31,30,22,15,27,11,7,90,70,53,29.78,29.49,29.09,10,9,1,29,17,38,0.00,7,Snow,285